| time (UTC) | temp F | wind direction | speed MPH | gust MPH | rain 1hr in | rain 24hr in | rain mn in | humidity % | barometer mb |
| 20260902223104 | 69 | 170 | 3.0 | 6.0 | 0.00 | 0.20 | 0.01 | 78 | 1020.6 |
| 20260902222605 | 70 | 136 | 1.0 | 2.0 | 0.00 | 0.20 | 0.01 | 79 | 1020.6 |
| 20260902222104 | 70 | 136 | 1.0 | 3.0 | 0.00 | 0.20 | 0.01 | 78 | 1020.6 |
| 20260902221605 | 70 | 163 | 2.0 | 6.0 | 0.00 | 0.20 | 0.01 | 78 | 1020.6 |
| 20260902221104 | 70 | 162 | 3.0 | 6.0 | 0.00 | 0.20 | 0.01 | 79 | 1020.7 |
| 20260902220605 | 70 | 159 | 1.0 | 3.0 | 0.00 | 0.20 | 0.01 | 80 | 1020.6 |
| 20260902220104 | 70 | 160 | 1.0 | 3.0 | 0.00 | 0.20 | 0.01 | 79 | 1020.6 |
| 20260902215604 | 70 | 160 | 3.0 | 6.0 | 0.00 | 0.20 | 0.01 | 78 | 1020.6 |
| 20260902215105 | 70 | 184 | 1.0 | 3.0 | 0.00 | 0.20 | 0.01 | 78 | 1020.6 |
| 20260902214604 | 70 | 167 | 2.0 | 5.0 | 0.00 | 0.20 | 0.01 | 77 | 1020.4 |
| 20260902214104 | 70 | 161 | 1.0 | 3.0 | 0.00 | 0.20 | 0.01 | 77 | 1020.5 |
| 20260902213604 | 70 | 172 | 1.0 | 8.0 | 0.00 | 0.20 | 0.01 | 76 | 1020.4 |
| 20260902213104 | 70 | 197 | 1.0 | 6.0 | 0.00 | 0.20 | 0.01 | 77 | 1020.4 |
| 20260902212605 | 70 | 161 | 0.0 | 3.0 | 0.00 | 0.20 | 0.01 | 77 | 1020.5 |
| 20260902211605 | 70 | 178 | 2.0 | 5.0 | 0.00 | 0.20 | 0.01 | 76 | 1020.4 |
| 20260902211104 | 70 | 228 | 1.0 | 6.0 | 0.00 | 0.20 | 0.01 | 77 | 1020.1 |
| 20260902210605 | 71 | 172 | 2.0 | 5.0 | 0.00 | 0.20 | 0.01 | 77 | 1020.0 |
| 20260902210105 | 71 | 167 | 2.0 | 5.0 | 0.00 | 0.20 | 0.01 | 79 | 1020.2 |
| 20260902205604 | 71 | 167 | 1.0 | 5.0 | 0.00 | 0.20 | 0.01 | 78 | 1020.5 |
| 20260902205104 | 71 | 211 | 1.0 | 3.0 | 0.00 | 0.20 | 0.01 | 77 | 1020.5 |
| 20260902204605 | 71 | 146 | 2.0 | 7.0 | 0.00 | 0.20 | 0.01 | 79 | 1020.3 |
| 20260902204104 | 71 | 159 | 1.0 | 2.0 | 0.00 | 0.20 | 0.01 | 78 | 1020.1 |
| 20260902202604 | 71 | 198 | 2.0 | 6.0 | 0.00 | 0.20 | 0.01 | 78 | 1020.2 |
| 20260902202104 | 71 | 156 | 2.0 | 5.0 | 0.00 | 0.20 | 0.01 | 78 | 1020.3 |
| 20260902201604 | 71 | 194 | 1.0 | 3.0 | 0.00 | 0.20 | 0.01 | 78 | 1020.2 |
| 20260902201104 | 71 | 165 | 5.0 | 9.0 | 0.00 | 0.20 | 0.01 | 78 | 1020.0 |
| 20260902200605 | 71 | 205 | 1.0 | 7.0 | 0.00 | 0.20 | 0.01 | 79 | 1019.9 |
| 20260902200105 | 71 | 186 | 0.0 | 2.0 | 0.00 | 0.20 | 0.01 | 79 | 1020.0 |
| 20260902195604 | 71 | 187 | 1.0 | 5.0 | 0.00 | 0.20 | 0.01 | 78 | 1020.2 |
| 20260902194604 | 71 | 168 | 2.0 | 7.0 | 0.00 | 0.20 | 0.01 | 76 | 1020.4 |
| 20260902194104 | 71 | 166 | 0.0 | 6.0 | 0.00 | 0.20 | 0.01 | 73 | 1020.8 |
| 20260902193604 | 71 | 185 | 2.0 | 6.0 | 0.00 | 0.20 | 0.01 | 72 | 1021.0 |
| 20260902193104 | 71 | 181 | 1.0 | 3.0 | 0.00 | 0.20 | 0.01 | 71 | 1021.1 |
| 20260902192104 | 72 | 161 | 3.0 | 8.0 | 0.00 | 0.20 | 0.01 | 70 | 1021.1 |
| 20260902191604 | 72 | 155 | 2.0 | 6.0 | 0.00 | 0.20 | 0.01 | 69 | 1021.0 |
| 20260902191104 | 72 | 177 | 1.0 | 3.0 | 0.00 | 0.20 | 0.01 | 70 | 1020.7 |
| 20260902190604 | 73 | 201 | 1.0 | 3.0 | 0.00 | 0.20 | 0.01 | 70 | 1020.8 |
| 20260902190104 | 73 | 206 | 1.0 | 5.0 | 0.00 | 0.20 | 0.01 | 69 | 1020.8 |
| 20260902185104 | 73 | 189 | 3.0 | 5.0 | 0.00 | 0.20 | 0.01 | 66 | 1020.7 |
| 20260902184604 | 73 | 179 | 1.0 | 6.0 | 0.00 | 0.20 | 0.01 | 65 | 1020.7 |
| 20260902184104 | 74 | 164 | 2.0 | 6.0 | 0.00 | 0.20 | 0.01 | 65 | 1020.6 |
| 20260902183104 | 74 | 173 | 4.0 | 8.0 | 0.00 | 0.20 | 0.01 | 64 | 1020.5 |
| 20260902182604 | 74 | 183 | 2.0 | 8.0 | 0.00 | 0.20 | 0.01 | 69 | 1020.8 |
| 20260902182104 | 74 | 175 | 3.0 | 10.0 | 0.00 | 0.20 | 0.01 | 66 | 1020.8 |
| 20260902181604 | 74 | 173 | 3.0 | 7.0 | 0.00 | 0.20 | 0.01 | 68 | 1020.9 |
| 20260902181104 | 74 | 199 | 1.0 | 9.0 | 0.00 | 0.20 | 0.01 | 68 | 1020.9 |
| 20260902180104 | 74 | 162 | 1.0 | 6.0 | 0.00 | 0.21 | 0.01 | 65 | 1021.1 |
| 20260902175604 | 74 | 162 | 2.0 | 8.0 | 0.00 | 0.21 | 0.01 | 67 | 1021.1 |
| 20260902174605 | 74 | 154 | 1.0 | 5.0 | 0.00 | 0.21 | 0.01 | 67 | 1021.1 |
| 20260902174104 | 74 | 176 | 1.0 | 5.0 | 0.00 | 0.21 | 0.01 | 65 | 1021.1 |
| 20260902173604 | 74 | 164 | 0.0 | 3.0 | 0.00 | 0.21 | 0.01 | 65 | 1021.2 |
| 20260902172604 | 74 | 163 | 5.0 | 6.0 | 0.00 | 0.21 | 0.01 | 59 | 1021.3 |
| 20260902172104 | 74 | 168 | 1.0 | 3.0 | 0.00 | 0.21 | 0.01 | 61 | 1021.2 |
| 20260902171604 | 75 | 220 | 1.0 | 5.0 | 0.00 | 0.21 | 0.01 | 63 | 1021.1 |
| 20260902171104 | 75 | 173 | 1.0 | 5.0 | 0.00 | 0.21 | 0.01 | 62 | 1020.8 |
| 20260902170104 | 75 | 164 | 4.0 | 9.0 | 0.00 | 0.21 | 0.01 | 66 | 1020.7 |
| 20260902165104 | 74 | 174 | 3.0 | 7.0 | 0.00 | 0.21 | 0.01 | 68 | 1020.8 |
| 20260902164604 | 74 | 152 | 2.0 | 8.0 | 0.00 | 0.21 | 0.01 | 69 | 1020.9 |
| 20260902164104 | 74 | 143 | 4.0 | 8.0 | 0.00 | 0.21 | 0.01 | 69 | 1021.0 |
| 20260902163604 | 74 | 160 | 3.0 | 5.0 | 0.00 | 0.21 | 0.01 | 68 | 1021.1 |
| 20260902163104 | 74 | 161 | 3.0 | 9.0 | 0.00 | 0.21 | 0.01 | 68 | 1021.0 |
| 20260902162604 | 74 | 168 | 0.0 | 3.0 | 0.00 | 0.21 | 0.01 | 71 | 1021.1 |
| 20260902162104 | 73 | 165 | 2.0 | 5.0 | 0.00 | 0.21 | 0.01 | 69 | 1021.0 |
| 20260902161604 | 73 | 185 | 3.0 | 9.0 | 0.00 | 0.21 | 0.01 | 66 | 1021.0 |
| 20260902161104 | 74 | 147 | 1.0 | 9.0 | 0.00 | 0.21 | 0.01 | 68 | 1021.1 |
| 20260902160604 | 74 | 177 | 1.0 | 6.0 | 0.00 | 0.21 | 0.01 | 68 | 1021.0 |
| 20260902160104 | 74 | 154 | 2.0 | 6.0 | 0.00 | 0.21 | 0.01 | 67 | 1021.1 |
| 20260902155604 | 74 | 181 | 3.0 | 6.0 | 0.00 | 0.21 | 0.01 | 68 | 1021.1 |
| 20260902155104 | 74 | 175 | 3.0 | 7.0 | 0.00 | 0.21 | 0.01 | 67 | 1021.2 |
| 20260902154604 | 74 | 181 | 0.0 | 2.0 | 0.00 | 0.21 | 0.01 | 74 | 1021.2 |
| 20260902154104 | 74 | 179 | 2.0 | 7.0 | 0.00 | 0.21 | 0.01 | 73 | 1021.4 |
| 20260902153604 | 73 | 254 | 0.0 | 2.0 | 0.00 | 0.21 | 0.01 | 69 | 1021.4 |
| 20260902153104 | 73 | 155 | 1.0 | 5.0 | 0.00 | 0.21 | 0.01 | 75 | 1021.5 |
| 20260902152604 | 72 | 157 | 1.0 | 3.0 | 0.00 | 0.21 | 0.01 | 77 | 1021.5 |
| 20260902152104 | 72 | 166 | 2.0 | 5.0 | 0.00 | 0.21 | 0.01 | 71 | 1021.5 |
| 20260902151604 | 71 | 193 | 1.0 | 3.0 | 0.00 | 0.21 | 0.01 | 75 | 1021.6 |
| 20260902151104 | 71 | 150 | 2.0 | 3.0 | 0.00 | 0.21 | 0.01 | 74 | 1021.7 |
| 20260902150604 | 71 | 178 | 0.0 | 3.0 | 0.00 | 0.21 | 0.01 | 77 | 1021.5 |
| 20260902145604 | 71 | 142 | 0.0 | 1.0 | 0.00 | 0.21 | 0.01 | 79 | 1021.6 |
| 20260902145104 | 70 | 142 | 0.0 | 0.0 | 0.00 | 0.21 | 0.01 | 82 | 1021.6 |
| 20260902144604 | 70 | 142 | 1.0 | 2.0 | 0.00 | 0.21 | 0.01 | 80 | 1021.6 |
| 20260902144104 | 70 | 142 | 0.0 | 1.0 | 0.00 | 0.21 | 0.01 | 82 | 1021.6 |
| 20260902143604 | 69 | 142 | 1.0 | 3.0 | 0.00 | 0.21 | 0.01 | 79 | 1021.4 |
| 20260902143104 | 69 | 142 | 1.0 | 2.0 | 0.00 | 0.21 | 0.01 | 82 | 1021.5 |
| 20260902142605 | 69 | 142 | 0.0 | 3.0 | 0.00 | 0.21 | 0.01 | 81 | 1021.6 |
| 20260902142103 | 69 | 143 | 1.0 | 3.0 | 0.00 | 0.21 | 0.01 | 82 | 1021.6 |
| 20260902141604 | 68 | 144 | 2.0 | 3.0 | 0.00 | 0.22 | 0.01 | 85 | 1021.6 |
| 20260902140604 | 68 | 166 | 2.0 | 5.0 | 0.00 | 0.22 | 0.01 | 87 | 1021.5 |
| 20260902140104 | 67 | 231 | 1.0 | 2.0 | 0.00 | 0.22 | 0.01 | 86 | 1021.6 |
| 20260902135604 | 67 | 188 | 2.0 | 3.0 | 0.00 | 0.23 | 0.01 | 87 | 1021.5 |
| 20260902134603 | 67 | 136 | 1.0 | 3.0 | 0.00 | 0.26 | 0.01 | 90 | 1021.3 |
| 20260902132607 | 66 | 157 | 3.0 | 6.0 | 0.00 | 0.29 | 0.01 | 92 | 1021.1 |
| 20260902132103 | 65 | 167 | 1.0 | 3.0 | 0.00 | 0.29 | 0.01 | 94 | 1021.2 |
| 20260902131104 | 65 | 196 | 2.0 | 5.0 | 0.00 | 0.30 | 0.01 | 95 | 1021.1 |
| 20260902130604 | 65 | 210 | 2.0 | 3.0 | 0.00 | 0.30 | 0.01 | 95 | 1021.1 |
| 20260902125604 | 64 | 146 | 1.0 | 3.0 | 0.00 | 0.30 | 0.01 | 96 | 1020.9 |
| 20260902125104 | 64 | 233 | 1.0 | 3.0 | 0.00 | 0.30 | 0.01 | 96 | 1020.8 |
| 20260902124604 | 64 | 216 | 2.0 | 5.0 | 0.00 | 0.30 | 0.01 | 96 | 1020.8 |
| 20260902124104 | 63 | 143 | 2.0 | 5.0 | 0.00 | 0.30 | 0.01 | 96 | 1020.6 |
| 20260902123604 | 63 | 185 | 2.0 | 8.0 | 0.00 | 0.30 | 0.01 | 97 | 1020.7 |
| 20260902123104 | 63 | 177 | 2.0 | 3.0 | 0.00 | 0.30 | 0.01 | 96 | 1020.9 |
| 20260902122104 | 63 | 231 | 0.0 | 3.0 | 0.00 | 0.30 | 0.01 | 97 | 1021.1 |
| 20260902121604 | 63 | 165 | 1.0 | 3.0 | 0.00 | 0.30 | 0.01 | 97 | 1021.2 |
| 20260902121104 | 63 | 139 | 1.0 | 3.0 | 0.00 | 0.30 | 0.01 | 97 | 1021.1 |
| 20260902120604 | 63 | 244 | 0.0 | 2.0 | 0.00 | 0.30 | 0.01 | 97 | 1021.1 |
| 20260902120104 | 63 | 242 | 0.0 | 2.0 | 0.00 | 0.30 | 0.01 | 97 | 1021.2 |
| 20260902115103 | 62 | 238 | 1.0 | 3.0 | 0.00 | 0.30 | 0.01 | 97 | 1021.2 |
| 20260902114604 | 62 | 238 | 1.0 | 2.0 | 0.00 | 0.30 | 0.01 | 97 | 1021.3 |
| 20260902114104 | 62 | 238 | 1.0 | 2.0 | 0.00 | 0.30 | 0.01 | 97 | 1021.2 |
| 20260902113604 | 62 | 229 | 2.0 | 3.0 | 0.00 | 0.30 | 0.01 | 97 | 1021.3 |
| 20260902113104 | 62 | 149 | 1.0 | 2.0 | 0.00 | 0.30 | 0.01 | 97 | 1021.3 |
| 20260902112603 | 62 | 237 | 1.0 | 3.0 | 0.00 | 0.30 | 0.01 | 97 | 1021.3 |
| 20260902112104 | 62 | 244 | 1.0 | 3.0 | 0.00 | 0.30 | 0.01 | 97 | 1021.3 |
| 20260902111604 | 62 | 250 | 1.0 | 3.0 | 0.00 | 0.30 | 0.01 | 97 | 1021.2 |
| 20260902111104 | 62 | 139 | 1.0 | 3.0 | 0.00 | 0.30 | 0.01 | 97 | 1021.0 |
| 20260902110107 | 62 | 144 | 0.0 | 2.0 | 0.00 | 0.31 | 0.01 | 97 | 1021.0 |
| 20260902105607 | 62 | 144 | 0.0 | 5.0 | 0.00 | 0.31 | 0.01 | 97 | 1021.1 |
| 20260902105107 | 62 | 239 | 0.0 | 2.0 | 0.00 | 0.31 | 0.01 | 97 | 1021.0 |
| 20260902104107 | 62 | 243 | 2.0 | 5.0 | 0.00 | 0.31 | 0.01 | 97 | 1020.9 |
| 20260902103607 | 62 | 250 | 1.0 | 5.0 | 0.00 | 0.31 | 0.01 | 97 | 1020.7 |
| 20260902103107 | 62 | 240 | 1.0 | 3.0 | 0.00 | 0.31 | 0.01 | 97 | 1020.6 |
| 20260902102107 | 62 | 240 | 2.0 | 3.0 | 0.00 | 0.31 | 0.01 | 97 | 1020.7 |
| 20260902101607 | 62 | 245 | 0.0 | 2.0 | 0.00 | 0.31 | 0.01 | 97 | 1020.7 |
| 20260902100607 | 62 | 240 | 1.0 | 3.0 | 0.00 | 0.31 | 0.01 | 97 | 1020.6 |
| 20260902100107 | 62 | 240 | 1.0 | 3.0 | 0.00 | 0.31 | 0.01 | 97 | 1020.7 |
| 20260902095606 | 62 | 247 | 1.0 | 3.0 | 0.00 | 0.31 | 0.01 | 97 | 1020.5 |
| 20260902094607 | 62 | 250 | 0.0 | 2.0 | 0.00 | 0.31 | 0.01 | 97 | 1020.4 |
| 20260902094107 | 62 | 240 | 1.0 | 2.0 | 0.00 | 0.31 | 0.01 | 97 | 1020.3 |
| 20260902093607 | 62 | 240 | 1.0 | 2.0 | 0.00 | 0.31 | 0.01 | 97 | 1020.3 |
| 20260902093107 | 62 | 240 | 0.0 | 2.0 | 0.00 | 0.31 | 0.01 | 97 | 1020.3 |
| 20260902092607 | 62 | 240 | 1.0 | 2.0 | 0.00 | 0.31 | 0.01 | 97 | 1020.2 |
| 20260902092106 | 62 | 240 | 2.0 | 3.0 | 0.00 | 0.31 | 0.01 | 97 | 1020.1 |
| 20260902091607 | 62 | 246 | 1.0 | 3.0 | 0.00 | 0.31 | 0.01 | 97 | 1020.1 |
| 20260902091107 | 62 | 248 | 1.0 | 2.0 | 0.00 | 0.31 | 0.01 | 97 | 1020.0 |
| 20260902090107 | 62 | 243 | 1.0 | 3.0 | 0.00 | 0.32 | 0.01 | 97 | 1020.0 |
| 20260902085606 | 62 | 240 | 1.0 | 2.0 | 0.00 | 0.32 | 0.01 | 97 | 1020.0 |
| 20260902085107 | 62 | 240 | 1.0 | 1.0 | 0.00 | 0.32 | 0.01 | 97 | 1020.0 |
| 20260902084107 | 62 | 239 | 1.0 | 2.0 | 0.00 | 0.32 | 0.01 | 97 | 1020.0 |
| 20260902083106 | 62 | 244 | 0.0 | 2.0 | 0.00 | 0.33 | 0.01 | 97 | 1020.0 |
| 20260902082607 | 62 | 244 | 0.0 | 2.0 | 0.00 | 0.33 | 0.01 | 97 | 1019.9 |
| 20260902082107 | 62 | 248 | 1.0 | 2.0 | 0.00 | 0.33 | 0.01 | 97 | 1019.9 |
| 20260902081606 | 62 | 159 | 1.0 | 3.0 | 0.00 | 0.34 | 0.01 | 97 | 1019.8 |
| 20260902080607 | 62 | 356 | 1.0 | 3.0 | 0.00 | 0.35 | 0.01 | 97 | 1019.6 |
| 20260902075607 | 62 | 221 | 0.0 | 3.0 | 0.00 | 0.37 | 0.01 | 97 | 1019.7 |
| 20260902075107 | 62 | 221 | 1.0 | 2.0 | 0.00 | 0.38 | 0.01 | 97 | 1019.7 |
| 20260902074606 | 62 | 221 | 0.0 | 1.0 | 0.00 | 0.38 | 0.01 | 97 | 1019.7 |
| 20260902074107 | 62 | 221 | 0.0 | 2.0 | 0.00 | 0.39 | 0.01 | 97 | 1019.7 |
| 20260902073607 | 62 | 164 | 2.0 | 3.0 | 0.00 | 0.40 | 0.01 | 97 | 1019.7 |
| 20260902073107 | 62 | 245 | 1.0 | 3.0 | 0.00 | 0.40 | 0.01 | 97 | 1019.7 |
| 20260902072606 | 62 | 145 | 1.0 | 5.0 | 0.00 | 0.40 | 0.01 | 97 | 1019.7 |
| 20260902072106 | 62 | 90 | 2.0 | 5.0 | 0.00 | 0.40 | 0.01 | 97 | 1019.6 |
| 20260902071607 | 62 | 241 | 1.0 | 3.0 | 0.00 | 0.40 | 0.01 | 97 | 1019.5 |
| 20260902070607 | 62 | 240 | 2.0 | 3.0 | 0.00 | 0.42 | 0.01 | 97 | 1019.6 |
| 20260902070107 | 62 | 240 | 1.0 | 3.0 | 0.00 | 0.43 | 0.01 | 97 | 1019.5 |
| 20260902065606 | 62 | 252 | 1.0 | 3.0 | 0.00 | 0.46 | 0.01 | 97 | 1019.6 |
| 20260902065106 | 62 | 0 | 1.0 | 3.0 | 0.00 | 0.49 | 0.01 | 97 | 1019.5 |
| 20260902064607 | 62 | 244 | 1.0 | 3.0 | 0.00 | 0.50 | 0.01 | 97 | 1019.4 |
| 20260902064106 | 62 | 140 | 1.0 | 6.0 | 0.00 | 0.50 | 0.01 | 97 | 1019.4 |
| 20260902063607 | 62 | 250 | 1.0 | 3.0 | 0.00 | 0.50 | 0.01 | 97 | 1019.5 |
| 20260902063107 | 62 | 250 | 2.0 | 3.0 | 0.00 | 0.51 | 0.01 | 97 | 1019.5 |
| 20260902062607 | 62 | 252 | 1.0 | 2.0 | 0.00 | 0.51 | 0.01 | 97 | 1019.5 |
| 20260902062107 | 62 | 251 | 1.0 | 2.0 | 0.00 | 0.53 | 0.01 | 97 | 1019.5 |
| 20260902061606 | 62 | 251 | 1.0 | 2.0 | 0.00 | 0.54 | 0.01 | 97 | 1019.4 |
| 20260902061106 | 62 | 251 | 0.0 | 2.0 | 0.00 | 0.54 | 0.01 | 97 | 1019.4 |
| 20260902060106 | 62 | 250 | 2.0 | 3.0 | 0.00 | 0.55 | 0.01 | 97 | 1019.5 |
| 20260902055606 | 62 | 248 | 1.0 | 3.0 | 0.00 | 0.55 | 0.01 | 97 | 1019.5 |
| 20260902055106 | 62 | 246 | 0.0 | 3.0 | 0.00 | 0.55 | 0.01 | 97 | 1019.7 |
| 20260902054607 | 62 | 250 | 1.0 | 2.0 | 0.00 | 0.55 | 0.01 | 97 | 1019.8 |
| 20260902054107 | 62 | 248 | 2.0 | 3.0 | 0.00 | 0.55 | 0.01 | 97 | 1019.7 |
| 20260902053607 | 63 | 239 | 1.0 | 3.0 | 0.01 | 0.55 | 0.01 | 97 | 1019.7 |
| 20260902053106 | 63 | 246 | 1.0 | 2.0 | 0.01 | 0.55 | 0.01 | 97 | 1019.7 |
| 20260902052607 | 63 | 240 | 2.0 | 3.0 | 0.01 | 0.55 | 0.01 | 97 | 1019.7 |
| 20260902052106 | 63 | 242 | 2.0 | 3.0 | 0.01 | 0.55 | 0.01 | 97 | 1019.7 |
| 20260902051106 | 63 | 233 | 1.0 | 2.0 | 0.01 | 0.55 | 0.01 | 97 | 1019.6 |
| 20260902050606 | 63 | 229 | 1.0 | 3.0 | 0.01 | 0.55 | 0.01 | 97 | 1019.6 |
| 20260902050107 | 63 | 226 | 1.0 | 2.0 | 0.01 | 0.55 | 0.01 | 97 | 1019.4 |
| 20260902045606 | 63 | 226 | 1.0 | 2.0 | 0.01 | 0.55 | 0.01 | 97 | 1019.5 |
| 20260902045106 | 63 | 225 | 0.0 | 1.0 | 0.01 | 0.55 | 0.01 | 97 | 1019.4 |
| 20260902044606 | 63 | 225 | 0.0 | 2.0 | 0.01 | 0.55 | 0.01 | 97 | 1019.4 |
| 20260902044106 | 63 | 225 | 1.0 | 2.0 | 0.01 | 0.55 | 0.01 | 96 | 1019.3 |
| 20260902043607 | 63 | 225 | 1.0 | 3.0 | 0.00 | 0.54 | 0.00 | 96 | 1019.3 |
| 20260902043106 | 63 | 236 | 1.0 | 3.0 | 0.00 | 0.54 | 0.00 | 96 | 1019.2 |
| 20260902042606 | 63 | 243 | 1.0 | 3.0 | 0.00 | 0.54 | 0.00 | 97 | 1019.3 |
| 20260902041607 | 63 | 240 | 0.0 | 2.0 | 0.00 | 0.54 | 0.00 | 97 | 1019.2 |
| 20260902040607 | 63 | 141 | 0.0 | 1.0 | 0.00 | 0.54 | 0.00 | 96 | 1019.3 |
| 20260902035607 | 62 | 140 | 0.0 | 2.0 | 0.00 | 0.54 | 0.54 | 97 | 1019.3 |
| 20260902035106 | 63 | 140 | 0.0 | 2.0 | 0.00 | 0.54 | 0.54 | 96 | 1019.2 |
| 20260902034607 | 63 | 140 | 0.0 | 2.0 | 0.00 | 0.54 | 0.54 | 97 | 1019.1 |
| 20260902034106 | 63 | 141 | 0.0 | 2.0 | 0.00 | 0.54 | 0.54 | 96 | 1019.0 |
| 20260902033607 | 63 | 141 | 0.0 | 2.0 | 0.00 | 0.54 | 0.54 | 96 | 1018.7 |
| 20260902033107 | 63 | 145 | 1.0 | 3.0 | 0.00 | 0.54 | 0.54 | 96 | 1018.8 |
| 20260902032606 | 63 | 140 | 1.0 | 3.0 | 0.00 | 0.54 | 0.54 | 96 | 1018.7 |
| 20260902032106 | 63 | 229 | 0.0 | 2.0 | 0.00 | 0.54 | 0.54 | 96 | 1018.9 |
| 20260902031107 | 63 | 162 | 2.0 | 3.0 | 0.00 | 0.54 | 0.54 | 96 | 1018.7 |
| 20260902030107 | 63 | 141 | 0.0 | 3.0 | 0.00 | 0.54 | 0.54 | 96 | 1018.9 |
| 20260902025607 | 63 | 141 | 0.0 | 3.0 | 0.00 | 0.54 | 0.54 | 96 | 1018.9 |
| 20260902025106 | 63 | 234 | 1.0 | 3.0 | 0.00 | 0.54 | 0.54 | 96 | 1018.8 |
| 20260902024606 | 63 | 178 | 0.0 | 2.0 | 0.00 | 0.54 | 0.54 | 96 | 1018.6 |
| 20260902024107 | 63 | 249 | 0.0 | 3.0 | 0.00 | 0.54 | 0.54 | 96 | 1018.6 |
| 20260902023607 | 63 | 248 | 1.0 | 3.0 | 0.00 | 0.54 | 0.54 | 96 | 1018.6 |
| 20260902023106 | 63 | 248 | 1.0 | 2.0 | 0.00 | 0.54 | 0.54 | 96 | 1018.4 |
| 20260902022607 | 63 | 248 | 0.0 | 1.0 | 0.00 | 0.54 | 0.54 | 96 | 1018.5 |
| 20260902022106 | 63 | 248 | 0.0 | 1.0 | 0.00 | 0.54 | 0.54 | 96 | 1018.5 |
| 20260902021606 | 63 | 248 | 0.0 | 1.0 | 0.00 | 0.54 | 0.54 | 96 | 1018.6 |
| 20260902020106 | 63 | 234 | 0.0 | 2.0 | 0.00 | 0.54 | 0.54 | 96 | 1018.5 |
| 20260902014106 | 63 | 143 | 1.0 | 2.0 | 0.00 | 0.54 | 0.54 | 96 | 1018.2 |
| 20260902013606 | 63 | 143 | 0.0 | 2.0 | 0.00 | 0.54 | 0.54 | 96 | 1018.2 |
| 20260902013106 | 63 | 143 | 1.0 | 2.0 | 0.00 | 0.54 | 0.54 | 96 | 1017.9 |
| 20260902012106 | 63 | 244 | 1.0 | 3.0 | 0.00 | 0.54 | 0.54 | 96 | 1018.0 |
| 20260902011606 | 63 | 244 | 1.0 | 3.0 | 0.00 | 0.54 | 0.54 | 96 | 1017.9 |
| 20260902011106 | 63 | 182 | 1.0 | 5.0 | 0.00 | 0.54 | 0.54 | 96 | 1017.8 |
| 20260902010607 | 63 | 162 | 1.0 | 3.0 | 0.00 | 0.54 | 0.54 | 96 | 1017.6 |
| 20260902010106 | 63 | 176 | 2.0 | 6.0 | 0.00 | 0.54 | 0.54 | 96 | 1017.6 |
| 20260902005606 | 63 | 158 | 1.0 | 3.0 | 0.00 | 0.54 | 0.54 | 96 | 1017.9 |
| 20260902004606 | 63 | 240 | 1.0 | 3.0 | 0.00 | 0.54 | 0.54 | 96 | 1017.9 |
| 20260902004106 | 63 | 246 | 1.0 | 2.0 | 0.00 | 0.54 | 0.54 | 96 | 1017.8 |
| 20260902001606 | 63 | 172 | 3.0 | 7.0 | 0.01 | 0.54 | 0.54 | 95 | 1017.4 |
| 20260902001107 | 63 | 226 | 1.0 | 3.0 | 0.01 | 0.54 | 0.54 | 95 | 1017.7 |
| 20260902000606 | 63 | 182 | 3.0 | 8.0 | 0.02 | 0.54 | 0.54 | 95 | 1017.5 |
| 20260902000106 | 63 | 137 | 2.0 | 3.0 | 0.02 | 0.54 | 0.54 | 95 | 1017.5 |
| 20260901235606 | 64 | 200 | 1.0 | 3.0 | 0.04 | 0.54 | 0.54 | 95 | 1017.3 |
| 20260901235106 | 64 | 187 | 3.0 | 5.0 | 0.07 | 0.54 | 0.54 | 95 | 1017.4 |
| 20260901234606 | 64 | 161 | 1.0 | 3.0 | 0.15 | 0.54 | 0.54 | 95 | 1017.2 |
| 20260901233606 | 64 | 188 | 1.0 | 3.0 | 0.18 | 0.53 | 0.53 | 95 | 1017.2 |
| 20260901232106 | 64 | 174 | 1.0 | 7.0 | 0.18 | 0.53 | 0.53 | 95 | 1017.4 |
| 20260901231135 | 64 | 170 | 1.0 | 3.0 | 0.18 | 0.53 | 0.53 | 94 | 1017.2 |
| 20260901230606 | 64 | 177 | 1.0 | 3.0 | 0.18 | 0.53 | 0.53 | 94 | 1017.2 |
| 20260901230106 | 65 | 240 | 1.0 | 3.0 | 0.17 | 0.52 | 0.52 | 94 | 1017.2 |
| 20260901225606 | 65 | 254 | 1.0 | 3.0 | 0.16 | 0.51 | 0.51 | 94 | 1017.2 |
| 20260901225106 | 65 | 180 | 2.0 | 5.0 | 0.13 | 0.48 | 0.48 | 94 | 1016.9 |
| 20260901224606 | 65 | 192 | 2.0 | 5.0 | 0.07 | 0.42 | 0.42 | 94 | 1017.0 |
| 20260901223606 | 65 | 136 | 2.0 | 3.0 | 0.00 | 0.35 | 0.35 | 94 | 1016.9 |